星链-37581(STARLINK-37581)

导读

STARLINK-37581(NORAD编号69366)是美国SpaceX公司星链星座的V2 Mini版本卫星,于北京时间2026年4月30日随Starlink 17-36任务,由13手猎鹰9号火箭从加州范登堡太空部队基地发射入轨,属于该批次24颗部署卫星之一。 该卫星运行于低地球轨道,搭载激光星间链路,支持手机直连通信功能,单星通信容量为V1.5版本的4倍,可提供高速低延迟宽带接入服务。截至2026年6月,该卫星在轨运行状态正常,是星链全球10300余颗在轨组网卫星的组成部分,为星链覆盖区的民用宽带、应急通信等场景提供服务支撑。

基本信息
目录编号:
69366
目录名称:
STARLINK-37581
国际标识:
2026-123P
轨道中心:
EARTH
卫星名称:
星链-37581
卫星全名:
星链-37581(STARLINK-37581)
卫星状态:
在轨 (已飞行9 天)
发射日期:
2026-06-04 UTC
国别 :
美国 (US)
星等 :
--
轨道信息
数据来源 国际轨道数据
星历时间: 2026-06-13T04:00:02+0800
7小时前
查看轨道信息
半长轴: 6666.602km
偏心率: 0.0000826
轨道倾角: 53.157°
近地点辐角 47.218°
升交点赤经 263.358°
平近点角 215.760°
近地点: 287.914km
远地点: 289.016km
周期: 90.285分钟
每日圈数: 15.94946
详细信息
固有亮度:
5
最大亮度:
2.5
卫星平台:
Starlink V1.0
覆盖范围:
全球
运营商:
太空探索技术公司
运营商所在国:
美国
制造商(研发单位):
太空探索技术公司
制造商所在国:
美国
使用方式:
暂无
卫星简介
Starlink 计划是 SpaceX 推出的全球卫星互联网项目,通过发射低轨道卫星,为全球尤其是偏远地区提供高速、低延迟的互联网服务。自 2019 年起,Starlink 已部署数千颗卫星,旨在缩小全球数字鸿沟,推动互联网普及。该项目还为军事、航空等行业提供通信支持,带来广泛经济效益。
2D轨道图
3D轨道图
轨道高度分析图
轨道倾角分析图
轨道综合分析图
查看轨道综合分析图